Tiempo cada hora Barkowo

Hoy, 22 Junio, Martes

Tiempo Temperatura Precipitaciones Viento Presión Humedad
00:00 +20°C° 0 mm 2 mps 743 mmHg 91%
01:00 +20°C° 0 mm 2 mps 742 mmHg 92%
02:00 +21°C° 0.2 mm 1 mps 742 mmHg 93%
03:00 +20°C° 0.2 mm 1 mps 743 mmHg 94%
04:00 +20°C° 0.2 mm 1 mps 743 mmHg 95%
05:00 +21°C° 0.2 mm 1 mps 743 mmHg 91%
06:00 +22°C° 0.2 mm 1 mps 743 mmHg 87%
07:00 +24°C° 0.2 mm 1 mps 744 mmHg 83%
08:00 +25°C° 0 mm 2 mps 744 mmHg 78%
09:00 +25°C° 0 mm 3 mps 744 mmHg 73%
10:00 +26°C° 0 mm 3 mps 745 mmHg 68%
11:00 +26°C° 0.1 mm 4 mps 745 mmHg 67%
12:00 +26°C° 0.1 mm 5 mps 745 mmHg 65%
13:00 +27°C° 0.1 mm 5 mps 746 mmHg 63%
14:00 +25°C° 0.6 mm 5 mps 746 mmHg 68%
15:00 +23°C° 0.6 mm 5 mps 746 mmHg 72%
16:00 +21°C° 0.6 mm 4 mps 746 mmHg 77%
17:00 +20°C° 0.5 mm 4 mps 747 mmHg 80%
18:00 +18°C° 0.5 mm 4 mps 747 mmHg 83%
19:00 +17°C° 0.5 mm 4 mps 747 mmHg 86%
20:00 +15°C° 0 mm 4 mps 748 mmHg 85%
21:00 +16°C° 0 mm 3 mps 748 mmHg 85%
22:00 +15°C° 0 mm 2 mps 748 mmHg 84%
23:00 +15°C° 0 mm 2 mps 749 mmHg 85%

Mañana, 23 Junio, Miércoles

Tiempo Temperatura Precipitaciones Viento Presión Humedad
00:00 +14°C° 0 mm 2 mps 749 mmHg 85%
01:00 +14°C° 0 mm 2 mps 749 mmHg 86%
02:00 +14°C° 0 mm 2 mps 749 mmHg 87%
03:00 +13°C° 0 mm 2 mps 749 mmHg 87%
04:00 +13°C° 0 mm 2 mps 749 mmHg 88%
05:00 +14°C° 0 mm 2 mps 749 mmHg 81%
06:00 +16°C° 0 mm 2 mps 750 mmHg 75%
07:00 +18°C° 0 mm 2 mps 750 mmHg 68%
08:00 +19°C° 0 mm 2 mps 750 mmHg 62%
09:00 +21°C° 0 mm 2 mps 750 mmHg 56%
10:00 +23°C° 0 mm 2 mps 750 mmHg 50%
11:00 +24°C° 0 mm 2 mps 750 mmHg 48%
12:00 +25°C° 0 mm 2 mps 750 mmHg 47%
13:00 +26°C° 0 mm 2 mps 750 mmHg 45%
14:00 +26°C° 0 mm 2 mps 750 mmHg 46%
15:00 +26°C° 0 mm 2 mps 750 mmHg 46%
16:00 +26°C° 0 mm 2 mps 750 mmHg 46%
17:00 +25°C° 0 mm 3 mps 750 mmHg 53%
18:00 +24°C° 0 mm 3 mps 750 mmHg 60%
19:00 +21°C° 0 mm 4 mps 751 mmHg 67%
20:00 +20°C° 0 mm 3 mps 751 mmHg 74%
21:00 +18°C° 0 mm 3 mps 751 mmHg 81%
22:00 +16°C° 0 mm 3 mps 751 mmHg 87%
23:00 +16°C° 0 mm 3 mps 751 mmHg 89%

Pasado mañana, 24 Junio, Jueves

Tiempo Temperatura Precipitaciones Viento Presión Humedad
00:00 +15°C° 0 mm 2 mps 751 mmHg 91%
01:00 +15°C° 0 mm 2 mps 751 mmHg 93%
02:00 +14°C° 0 mm 2 mps 751 mmHg 92%
03:00 +14°C° 0 mm 1 mps 751 mmHg 92%
04:00 +14°C° 0 mm 1 mps 751 mmHg 92%
05:00 +16°C° 0 mm 1 mps 751 mmHg 85%
06:00 +18°C° 0 mm 1 mps 751 mmHg 79%
07:00 +20°C° 0 mm 1 mps 751 mmHg 72%
08:00 +21°C° 0 mm 1 mps 751 mmHg 66%
09:00 +23°C° 0 mm 1 mps 751 mmHg 61%
10:00 +25°C° 0 mm 1 mps 751 mmHg 55%
11:00 +25°C° 0 mm 1 mps 750 mmHg 53%
12:00 +26°C° 0 mm 1 mps 750 mmHg 52%
13:00 +27°C° 0 mm 1 mps 750 mmHg 50%
14:00 +27°C° 0 mm 1 mps 750 mmHg 52%
15:00 +26°C° 0 mm 2 mps 749 mmHg 53%
16:00 +26°C° 0 mm 2 mps 749 mmHg 54%
17:00 +25°C° 0.1 mm 2 mps 749 mmHg 60%
18:00 +24°C° 0.1 mm 2 mps 749 mmHg 67%
19:00 +23°C° 0.1 mm 2 mps 749 mmHg 73%
20:00 +20°C° 0 mm 2 mps 749 mmHg 78%
21:00 +18°C° 0 mm 3 mps 749 mmHg 83%
22:00 +17°C° 0 mm 3 mps 749 mmHg 88%
23:00 +16°C° 0 mm 3 mps 748 mmHg 89%

25 Junio, Viernes

Tiempo Temperatura Precipitaciones Viento Presión Humedad
00:00 +16°C° 0 mm 3 mps 748 mmHg 91%
01:00 +14°C° 0 mm 3 mps 747 mmHg 92%
02:00 +14°C° 0 mm 3 mps 747 mmHg 91%
03:00 +16°C° 0 mm 3 mps 747 mmHg 90%
04:00 +16°C° 0 mm 3 mps 746 mmHg 89%
05:00 +16°C° 0.4 mm 3 mps 746 mmHg 90%
06:00 +16°C° 0.4 mm 3 mps 746 mmHg 90%
07:00 +16°C° 0.4 mm 3 mps 747 mmHg 91%
08:00 +16°C° 0.4 mm 3 mps 747 mmHg 92%
09:00 +16°C° 0.4 mm 3 mps 747 mmHg 93%
10:00 +16°C° 0.4 mm 3 mps 747 mmHg 94%
11:00 +16°C° 0.8 mm 3 mps 747 mmHg 94%
12:00 +16°C° 0.8 mm 3 mps 747 mmHg 94%
13:00 +16°C° 0.8 mm 3 mps 747 mmHg 95%
14:00 +16°C° 0.2 mm 3 mps 747 mmHg 94%
15:00 +16°C° 0.2 mm 3 mps 747 mmHg 93%
16:00 +16°C° 0.2 mm 3 mps 747 mmHg 92%
17:00 +16°C° 0.1 mm 3 mps 747 mmHg 92%
18:00 +15°C° 0.1 mm 4 mps 747 mmHg 92%
19:00 +15°C° 0.1 mm 4 mps 748 mmHg 92%
20:00 +15°C° 0 mm 4 mps 748 mmHg 93%
21:00 +15°C° 0 mm 4 mps 748 mmHg 93%
22:00 +14°C° 0 mm 3 mps 748 mmHg 94%
23:00 +14°C° 0.1 mm 4 mps 748 mmHg 94%

26 Junio, Sábado

Tiempo Temperatura Precipitaciones Viento Presión Humedad
00:00 +14°C° 0.1 mm 4 mps 748 mmHg 94%
01:00 +14°C° 0.1 mm 4 mps 748 mmHg 95%
02:00 +14°C° 0 mm 4 mps 748 mmHg 95%
03:00 +14°C° 0 mm 4 mps 748 mmHg 95%
04:00 +14°C° 0 mm 4 mps 748 mmHg 95%
05:00 +14°C° 0 mm 4 mps 748 mmHg 94%
06:00 +15°C° 0 mm 4 mps 748 mmHg 93%
07:00 +15°C° 0 mm 4 mps 748 mmHg 92%
08:00 +17°C° 0.1 mm 4 mps 749 mmHg 90%
09:00 +17°C° 0.1 mm 4 mps 749 mmHg 88%
10:00 +17°C° 0.1 mm 4 mps 749 mmHg 86%
11:00 +18°C° 0.2 mm 4 mps 749 mmHg 82%
12:00 +19°C° 0.2 mm 4 mps 749 mmHg 78%
13:00 +20°C° 0.2 mm 5 mps 749 mmHg 74%
14:00 +21°C° 0.2 mm 4 mps 749 mmHg 70%
15:00 +21°C° 0.2 mm 4 mps 749 mmHg 66%
16:00 +22°C° 0.2 mm 4 mps 749 mmHg 62%
17:00 +21°C° 0 mm 4 mps 749 mmHg 65%
18:00 +20°C° 0 mm 4 mps 749 mmHg 68%
19:00 +19°C° 0 mm 3 mps 749 mmHg 71%
20:00 +18°C° 0 mm 3 mps 750 mmHg 78%
21:00 +16°C° 0 mm 2 mps 750 mmHg 85%
22:00 +15°C° 0 mm 2 mps 750 mmHg 92%
23:00 +14°C° 0 mm 2 mps 750 mmHg 93%

27 Junio, Domingo

Tiempo Temperatura Precipitaciones Viento Presión Humedad
00:00 +14°C° 0 mm 2 mps 750 mmHg 93%
01:00 +14°C° 0 mm 2 mps 750 mmHg 94%
02:00 +14°C° 0 mm 2 mps 750 mmHg 94%
03:00 +13°C° 0 mm 2 mps 750 mmHg 95%
04:00 +13°C° 0 mm 2 mps 750 mmHg 95%
05:00 +15°C° 0 mm 2 mps 750 mmHg 87%
06:00 +17°C° 0 mm 2 mps 750 mmHg 80%
07:00 +19°C° 0 mm 2 mps 750 mmHg 72%
08:00 +21°C° 0 mm 2 mps 750 mmHg 65%
09:00 +23°C° 0 mm 2 mps 750 mmHg 57%
10:00 +25°C° 0 mm 2 mps 750 mmHg 50%
11:00 +26°C° 0 mm 2 mps 750 mmHg 47%
12:00 +27°C° 0 mm 2 mps 750 mmHg 43%
13:00 +27°C° 0 mm 2 mps 750 mmHg 40%
14:00 +28°C° 0 mm 2 mps 750 mmHg 40%
15:00 +28°C° 0 mm 2 mps 750 mmHg 41%
16:00 +28°C° 0 mm 2 mps 750 mmHg 41%
17:00 +27°C° 0 mm 2 mps 750 mmHg 48%
18:00 +26°C° 0 mm 2 mps 750 mmHg 55%
19:00 +25°C° 0 mm 2 mps 750 mmHg 62%
20:00 +23°C° 0 mm 2 mps 750 mmHg 67%
21:00 +20°C° 0 mm 2 mps 750 mmHg 71%
22:00 +19°C° 0 mm 2 mps 750 mmHg 76%
23:00 +19°C° 0 mm 2 mps 750 mmHg 76%
Mostrar más

Necesitamos Su Consentimiento

Meteoprog y nuestros Proveedores de Servicios pueden almacenar y acceder a sus datos personales como cookies, identificadores de dispositivo u otras tecnologías similares de su dispositivo y procesar dichos datos para personalizar contenido y anuncios, además de ofrecer funciones de redes sociales y analizar el tráfico.

  • Almacenar y/o acceder a información en su dispositivo

    Se puede almacenar o acceder a cookies, identificadores de dispositivo u otra información de su dispositivo para los fines anteriormente indicados.

  • Anuncios y contenido personalizados, medición de anuncios y contenido, percepciones del público, y desarrollo de productos

    Los anuncios y el contenido pueden personalizarse en base a su perfil. Se pueden añadir más datos para personalizar mejor los anuncios y contenidos. Se puede medir el rendimiento de los anuncios y contenidos. Se puede obtener la percepción sobre el público que ha visto los anuncios y contenidos. Dichos datos pueden usarse para desarrollar o mejorar la experiencia del usuario, sistemas y software.

Al hacer clic en ‘Estoy De Acuerdo’ usted permitirá el uso de las cookies, identificadores de dispositivo, balizas web u otras tecnologías similares indicadas. Su configuración puede cambiarse desde el navegador de su dispositivo.

Para ciertos fines, los intereses legítimos pueden ser considerados por encima del consentimiento. Puede leer más sobre ello en nuestra Política de Privacidad y Cookies.